Memphis, TN

10:55 AM CDT on May 27, 2017 (GMT -0500)
Memphis International

Weather History for KMEM - November, 2011

Change the Weather History Date:

Thursday, November 10, 2011

  Actual Average Record
Temperature  
Mean Temperature 47 °F 55 °F  
Max Temperature 58 °F 65 °F 82 °F (2002)
Min Temperature 36 °F 46 °F 27 °F (1941)
Degree Days  
Heating Degree Days 18 10  
Month to date heating degree days 75 88  
Since 1 July heating degree days 219 219  
Cooling Degree Days 0 1  
Month to date cooling degree days 7 10  
Year to date cooling degree days 2547 2253  
Moisture  
Dew Point 27 °F    
Average Humidity 53    
Maximum Humidity 82    
Minimum Humidity 23    
Precipitation  
Precipitation 0.00 in 0.17 in 2.97 in (1945)
Month to date precipitation 0.59 1.58  
Year to date precipitation 42.69 44.03  
Snow  
Snow 0.00 in 0.00 in T in (1900)
Month to date snowfall 0.0 0.0  
Since 1 July snowfall 0.0 0.0  
Since 1 September snowfall 0.0 0.0  
Snow Depth -    
Sea Level Pressure  
Sea Level Pressure 30.25 in    
Wind  
Wind Speed 8 mph (NW)    
Max Wind Speed 22 mph    
Max Gust Speed 30 mph    
Visibility 10 miles    
Events      
T = Trace of Precipitation, MM = Missing Value Source: NWS Daily Summary

Daily Weather History Graph

Daily Weather History Graph

Search for Another Location

Airport or City:

Trip Planner

Search our weather history database for the weather conditions in past years. The results will help you decide how hot, cold, wet, or windy it might be!

Date:

Astronomy

Nov. 10, 2011 Rise Set
Actual Time 6:29 AM CST 4:57 PM CST
Civil Twilight 6:02 AM CST 5:24 PM CST
Nautical Twilight 5:32 AM CST 5:54 PM CST
Astronomical Twilight 5:02 AM CST 6:24 PM CST
Moon 4:48 PM CST (11/10) 6:20 AM CST (11/10)
Length of Visible Light 11h 21m
Length of Day
10h 28m
Full, 100% of the Moon is Illuminated
Nov 10
Full
Nov 10
Full
Nov 18
Last Quarter
Nov 25
New
Dec 2
First Quarter

Hourly Weather History & Observations

Time (CST) Temp. Windchill Dew Point Humidity Pressure Visibility Wind Dir Wind Speed Gust Speed Precip Events Conditions
12:54 AM 44.1 °F 40.8 °F 36.0 °F 73% 30.25 in 10.0 mi WNW 5.8 mph - N/A   Clear
1:54 AM 41.0 °F 36.4 °F 34.0 °F 76% 30.25 in 10.0 mi NW 6.9 mph - N/A   Partly Cloudy
2:54 AM 43.0 °F 38.8 °F 33.1 °F 68% 30.25 in 10.0 mi NW 6.9 mph - N/A   Clear
3:54 AM 41.0 °F 38.0 °F 33.1 °F 73% 30.25 in 10.0 mi NW 4.6 mph - N/A   Partly Cloudy
4:54 AM 39.0 °F 34.8 °F 32.0 °F 76% 30.26 in 10.0 mi WNW 5.8 mph - N/A   Partly Cloudy
5:54 AM 39.0 °F 34.0 °F 32.0 °F 76% 30.26 in 10.0 mi NW 6.9 mph - N/A   Partly Cloudy
6:54 AM 39.9 °F 33.9 °F 32.0 °F 73% 30.27 in 10.0 mi NW 9.2 mph - N/A   Partly Cloudy
7:54 AM 44.1 °F 38.6 °F 32.0 °F 63% 30.30 in 10.0 mi NW 10.4 mph - N/A   Partly Cloudy
8:54 AM 46.9 °F - 30.0 °F 52% 30.31 in 10.0 mi NNW 13.8 mph - N/A   Partly Cloudy
9:54 AM 51.1 °F - 28.9 °F 43% 30.32 in 10.0 mi NW 10.4 mph - N/A   Clear
10:54 AM 55.0 °F - 24.1 °F 30% 30.31 in 10.0 mi NNW 8.1 mph - N/A   Clear
11:54 AM 55.4 °F - 21.2 °F 26% 30.28 in 10.0 mi NNW 16.1 mph 29.9 mph N/A   Clear
12:54 PM 57.0 °F - 19.9 °F 24% 30.25 in 10.0 mi NNW 12.7 mph 25.3 mph N/A   Clear
1:54 PM 57.0 °F - 19.9 °F 24% 30.23 in 10.0 mi NNW 18.4 mph 29.9 mph N/A   Clear
2:54 PM 57.2 °F - 19.4 °F 23% 30.21 in 10.0 mi NW 18.4 mph 27.6 mph N/A   Clear
3:54 PM 55.9 °F - 21.0 °F 26% 30.20 in 10.0 mi NW 19.6 mph 24.2 mph N/A   Clear
4:54 PM 53.1 °F - 19.9 °F 27% 30.21 in 10.0 mi NW 9.2 mph - N/A   Clear
5:54 PM 50.0 °F - 21.9 °F 33% 30.21 in 10.0 mi NW 5.8 mph - N/A   Clear
6:54 PM 48.2 °F - 23.0 °F 37% 30.21 in 7.0 mi NW 4.6 mph - N/A   Scattered Clouds
7:54 PM 46.4 °F - 26.6 °F 46% 30.21 in 8.0 mi Calm Calm - N/A   Partly Cloudy
8:54 PM 42.8 °F 41.1 °F 28.4 °F 57% 30.21 in 10.0 mi SW 3.5 mph - N/A   Partly Cloudy
9:54 PM 41.0 °F - 27.0 °F 57% 30.22 in 10.0 mi Calm Calm - N/A   Clear
10:54 PM 41.0 °F - 28.9 °F 62% 30.21 in 10.0 mi Calm Calm - N/A   Clear
11:54 PM 41.0 °F - 30.0 °F 65% 30.21 in 10.0 mi Calm Calm - N/A   Clear